Location: *
(37.9500°N, 27.3666°E)
Time: 15:38:26
(UTC+00:00)

NOSS 2-3 (D) - Pass Details

Date: 24 October 2021
Orbit: 538 x 1672 km, 63.3° (Epoch: 25 November)

Event Time Altitude Azimuth Distance (km) Brightness Sun altitude
Rises 16:19:10 0° 223° (SW) 2,681 7.6 -12.1°
Reaches altitude 10° 16:21:19 10° 228° (SW) 1,793 6.8 -12.5°
Maximum altitude 16:25:08 54° 306° (NW) 689 4.1 -13.3°
Drops below altitude 10° 16:29:26 10° 25° (NNE) 2,012 5.9 -14.1°
Enters shadow 16:30:51 - 28° (NNE) 2,587 6.4 -14.4°
